Year,Month,Day,Hour,Minute,Value (Times are PST for temperature in C)
2013,10,18,00,00,6.20
2013,10,18,00,01,6.20
2013,10,18,00,02,6.20
2013,10,18,00,03,6.20
2013,10,18,00,04,6.20
2013,10,18,00,05,6.20
2013,10,18,00,06,6.20
2013,10,18,00,07,6.20
2013,10,18,00,08,6.20
2013,10,18,00,09,6.20
2013,10,18,00,10,6.10
2013,10,18,00,11,6.10
2013,10,18,00,12,6.10
2013,10,18,00,13,6.10
2013,10,18,00,14,6.10
2013,10,18,00,15,6.10
2013,10,18,00,16,6.00
2013,10,18,00,17,6.00
2013,10,18,00,18,6.00
2013,10,18,00,19,6.00
2013,10,18,00,20,5.90
2013,10,18,00,21,5.90
2013,10,18,00,22,5.90
2013,10,18,00,23,5.90
2013,10,18,00,24,5.90
2013,10,18,00,25,5.90
2013,10,18,00,26,5.80
2013,10,18,00,27,5.80
2013,10,18,00,28,5.80
2013,10,18,00,29,5.80
2013,10,18,00,30,5.80
2013,10,18,00,31,5.80
2013,10,18,00,32,5.80
2013,10,18,00,33,5.80
2013,10,18,00,34,5.80
2013,10,18,00,35,5.70
2013,10,18,00,36,5.70
2013,10,18,00,37,5.70
2013,10,18,00,38,5.70
2013,10,18,00,39,5.70
2013,10,18,00,40,5.70
2013,10,18,00,41,5.70
2013,10,18,00,42,5.60
2013,10,18,00,43,5.60
2013,10,18,00,44,5.60
2013,10,18,00,45,5.60
2013,10,18,00,46,5.60
2013,10,18,00,47,5.60
2013,10,18,00,48,5.50
2013,10,18,00,49,5.50
2013,10,18,00,50,5.50
2013,10,18,00,51,5.50
2013,10,18,00,52,5.50
2013,10,18,00,53,5.50
2013,10,18,00,54,5.50
2013,10,18,00,55,5.40
2013,10,18,00,56,5.40
2013,10,18,00,57,5.40
2013,10,18,00,58,5.40
2013,10,18,00,59,5.40
2013,10,18,01,00,5.40
2013,10,18,01,01,5.40
2013,10,18,01,02,5.40
2013,10,18,01,03,5.30
2013,10,18,01,04,5.30
2013,10,18,01,05,5.30
2013,10,18,01,06,5.30
2013,10,18,01,07,5.30
2013,10,18,01,08,5.30
2013,10,18,01,09,5.30
2013,10,18,01,10,5.30
2013,10,18,01,11,5.30
2013,10,18,01,12,5.30
2013,10,18,01,13,5.30
2013,10,18,01,14,5.30
2013,10,18,01,15,5.20
2013,10,18,01,16,5.20
2013,10,18,01,17,5.20
2013,10,18,01,18,5.20
2013,10,18,01,19,5.20
2013,10,18,01,20,5.20
2013,10,18,01,21,5.20
2013,10,18,01,22,5.20
2013,10,18,01,23,5.20
2013,10,18,01,24,5.20
2013,10,18,01,25,5.20
2013,10,18,01,26,5.20
2013,10,18,01,27,5.20
2013,10,18,01,28,5.20
2013,10,18,01,29,5.20
2013,10,18,01,30,5.20
2013,10,18,01,31,5.20
2013,10,18,01,32,5.20
2013,10,18,01,33,5.30
2013,10,18,01,34,5.30
2013,10,18,01,35,5.30
2013,10,18,01,36,5.30
2013,10,18,01,37,5.30
2013,10,18,01,38,5.30
2013,10,18,01,39,5.30
2013,10,18,01,40,5.30
2013,10,18,01,41,5.30
2013,10,18,01,42,5.30
2013,10,18,01,43,5.30
2013,10,18,01,44,5.30
2013,10,18,01,45,5.30
2013,10,18,01,46,5.30
2013,10,18,01,47,5.30
2013,10,18,01,48,5.40
2013,10,18,01,49,5.40
2013,10,18,01,50,5.50
2013,10,18,01,51,5.60
2013,10,18,01,52,5.60
2013,10,18,01,53,5.70
2013,10,18,01,54,5.80
2013,10,18,01,55,5.80
2013,10,18,01,56,5.90
2013,10,18,01,57,6.00
2013,10,18,01,58,6.00
2013,10,18,01,59,6.10
2013,10,18,02,00,6.10
2013,10,18,02,01,6.20
2013,10,18,02,02,6.20
2013,10,18,02,03,6.20
2013,10,18,02,04,6.20
2013,10,18,02,05,6.20
2013,10,18,02,06,6.30
2013,10,18,02,07,6.30
2013,10,18,02,08,6.30
2013,10,18,02,09,6.30
2013,10,18,02,10,6.30
2013,10,18,02,11,6.30
2013,10,18,02,12,6.30
2013,10,18,02,13,6.30
2013,10,18,02,14,6.30
2013,10,18,02,15,6.30
2013,10,18,02,16,6.30
2013,10,18,02,17,6.30
2013,10,18,02,18,6.30
2013,10,18,02,19,6.30
2013,10,18,02,20,6.30
2013,10,18,02,21,6.30
2013,10,18,02,22,6.30
2013,10,18,02,23,6.30
2013,10,18,02,24,6.40
2013,10,18,02,25,6.40
2013,10,18,02,26,6.40
2013,10,18,02,27,6.40
2013,10,18,02,28,6.40
2013,10,18,02,29,6.40
2013,10,18,02,30,6.40
2013,10,18,02,31,6.40
2013,10,18,02,32,6.40
2013,10,18,02,33,6.40
2013,10,18,02,34,6.50
2013,10,18,02,35,6.50
2013,10,18,02,36,6.50
2013,10,18,02,37,6.50
2013,10,18,02,38,6.50
2013,10,18,02,39,6.50
2013,10,18,02,40,6.50
2013,10,18,02,41,6.60
2013,10,18,02,42,6.60
2013,10,18,02,43,6.60
2013,10,18,02,44,6.60
2013,10,18,02,45,6.60
2013,10,18,02,46,6.60
2013,10,18,02,47,6.60
2013,10,18,02,48,6.60
2013,10,18,02,49,6.60
2013,10,18,02,50,6.60
2013,10,18,02,51,6.70
2013,10,18,02,52,6.70
2013,10,18,02,53,6.70
2013,10,18,02,54,6.70
2013,10,18,02,55,6.70
2013,10,18,02,56,6.70
2013,10,18,02,57,6.70
2013,10,18,02,58,6.70
2013,10,18,02,59,6.70
2013,10,18,03,00,6.80
2013,10,18,03,01,6.80
2013,10,18,03,02,6.80
2013,10,18,03,03,6.80
2013,10,18,03,04,6.80
2013,10,18,03,05,6.80
2013,10,18,03,06,6.80
2013,10,18,03,07,6.80
2013,10,18,03,08,6.80
2013,10,18,03,09,6.80
2013,10,18,03,10,6.90
2013,10,18,03,11,6.90
2013,10,18,03,12,6.90
2013,10,18,03,13,6.90
2013,10,18,03,14,6.90
2013,10,18,03,15,6.90
2013,10,18,03,16,6.90
2013,10,18,03,17,6.90
2013,10,18,03,18,6.90
2013,10,18,03,19,7.00
2013,10,18,03,20,7.00
2013,10,18,03,21,7.00
2013,10,18,03,22,7.00
2013,10,18,03,23,7.00
2013,10,18,03,24,7.00
2013,10,18,03,25,7.00
2013,10,18,03,26,7.10
2013,10,18,03,27,7.10
2013,10,18,03,28,7.10
2013,10,18,03,29,7.10
2013,10,18,03,30,7.10
2013,10,18,03,31,7.10
2013,10,18,03,32,7.10
2013,10,18,03,33,7.10
2013,10,18,03,34,7.20
2013,10,18,03,35,7.20
2013,10,18,03,36,7.20
2013,10,18,03,37,7.20
2013,10,18,03,38,7.20
2013,10,18,03,39,7.20
2013,10,18,03,40,7.20
2013,10,18,03,41,7.30
2013,10,18,03,42,7.30
2013,10,18,03,43,7.30
2013,10,18,03,44,7.30
2013,10,18,03,45,7.30
2013,10,18,03,46,7.30
2013,10,18,03,47,7.40
2013,10,18,03,48,7.40
2013,10,18,03,49,7.40
2013,10,18,03,50,7.40
2013,10,18,03,51,7.40
2013,10,18,03,52,7.40
2013,10,18,03,53,7.40
2013,10,18,03,54,7.40
2013,10,18,03,55,7.50
2013,10,18,03,56,7.50
2013,10,18,03,57,7.50
2013,10,18,03,58,7.50
2013,10,18,03,59,7.50
2013,10,18,04,00,7.50
2013,10,18,04,01,7.50
2013,10,18,04,02,7.50
2013,10,18,04,03,7.50
2013,10,18,04,04,7.50
2013,10,18,04,05,7.60
2013,10,18,04,06,7.60
2013,10,18,04,07,7.60
2013,10,18,04,08,7.50
2013,10,18,04,09,7.50
2013,10,18,04,10,7.50
2013,10,18,04,11,7.50
2013,10,18,04,12,7.50
2013,10,18,04,13,7.50
2013,10,18,04,14,7.40
2013,10,18,04,15,7.40
2013,10,18,04,16,7.40
2013,10,18,04,17,7.40
2013,10,18,04,18,7.40
2013,10,18,04,19,7.40
2013,10,18,04,20,7.40
2013,10,18,04,21,7.40
2013,10,18,04,22,7.40
2013,10,18,04,23,7.40
2013,10,18,04,24,7.40
2013,10,18,04,25,7.40
2013,10,18,04,26,7.40
2013,10,18,04,27,7.40
2013,10,18,04,28,7.40
2013,10,18,04,29,7.40
2013,10,18,04,30,7.40
2013,10,18,04,31,7.40
2013,10,18,04,32,7.40
2013,10,18,04,33,7.40
2013,10,18,04,34,7.40
2013,10,18,04,35,7.40
2013,10,18,04,36,7.40
2013,10,18,04,37,7.40
2013,10,18,04,38,7.40
2013,10,18,04,39,7.30
2013,10,18,04,40,7.30
2013,10,18,04,41,7.30
2013,10,18,04,42,7.30
2013,10,18,04,43,7.30
2013,10,18,04,44,7.30
2013,10,18,04,45,7.30
2013,10,18,04,46,7.30
2013,10,18,04,47,7.20
2013,10,18,04,48,7.20
2013,10,18,04,49,7.20
2013,10,18,04,50,7.20
2013,10,18,04,51,7.20
2013,10,18,04,52,7.20
2013,10,18,04,53,7.20
2013,10,18,04,54,7.20
2013,10,18,04,55,7.20
2013,10,18,04,56,7.20
2013,10,18,04,57,7.10
2013,10,18,04,58,7.10
2013,10,18,04,59,7.10
2013,10,18,05,00,7.10
2013,10,18,05,01,7.10
2013,10,18,05,02,7.10
2013,10,18,05,03,7.10
2013,10,18,05,04,7.10
2013,10,18,05,05,7.10
2013,10,18,05,06,7.10
2013,10,18,05,07,7.10
2013,10,18,05,08,7.10
2013,10,18,05,09,7.10
2013,10,18,05,10,7.20
2013,10,18,05,11,7.20
2013,10,18,05,12,7.20
2013,10,18,05,13,7.20
2013,10,18,05,14,7.20
2013,10,18,05,15,7.20
2013,10,18,05,16,7.20
2013,10,18,05,17,7.20
2013,10,18,05,18,7.20
2013,10,18,05,19,7.20
2013,10,18,05,20,7.20
2013,10,18,05,21,7.20
2013,10,18,05,22,7.30
2013,10,18,05,23,7.30
2013,10,18,05,24,7.30
2013,10,18,05,25,7.30
2013,10,18,05,26,7.30
2013,10,18,05,27,7.30
2013,10,18,05,28,7.30
2013,10,18,05,29,7.30
2013,10,18,05,30,7.30
2013,10,18,05,31,7.30
2013,10,18,05,32,7.30
2013,10,18,05,33,7.30
2013,10,18,05,34,7.30
2013,10,18,05,35,7.30
2013,10,18,05,36,7.30
2013,10,18,05,37,7.30
2013,10,18,05,38,7.30
2013,10,18,05,39,7.30
2013,10,18,05,40,7.30
2013,10,18,05,41,7.30
2013,10,18,05,42,7.30
2013,10,18,05,43,7.30
2013,10,18,05,44,7.30
2013,10,18,05,45,7.30
2013,10,18,05,46,7.30
2013,10,18,05,47,7.30
2013,10,18,05,48,7.20
2013,10,18,05,49,7.20
2013,10,18,05,50,7.20
2013,10,18,05,51,7.20
2013,10,18,05,52,7.20
2013,10,18,05,53,7.20
2013,10,18,05,54,7.20
2013,10,18,05,55,7.20
2013,10,18,05,56,7.20
2013,10,18,05,57,7.20
2013,10,18,05,58,7.20
2013,10,18,05,59,7.20
2013,10,18,06,00,7.20
2013,10,18,06,01,7.20
2013,10,18,06,02,7.10
2013,10,18,06,03,7.10
2013,10,18,06,04,7.10
2013,10,18,06,05,7.10
2013,10,18,06,06,7.10
2013,10,18,06,07,7.10
2013,10,18,06,08,7.10
2013,10,18,06,09,7.10
2013,10,18,06,10,7.10
2013,10,18,06,11,7.10
2013,10,18,06,12,7.10
2013,10,18,06,13,7.10
2013,10,18,06,14,7.10
2013,10,18,06,15,7.10
2013,10,18,06,16,7.10
2013,10,18,06,17,7.10
2013,10,18,06,18,7.10
2013,10,18,06,19,7.10
2013,10,18,06,20,7.10
2013,10,18,06,21,7.10
2013,10,18,06,22,7.10
2013,10,18,06,23,7.10
2013,10,18,06,24,7.10
2013,10,18,06,25,7.10
2013,10,18,06,26,7.10
2013,10,18,06,27,7.10
2013,10,18,06,28,7.10
2013,10,18,06,29,7.10
2013,10,18,06,30,7.10
2013,10,18,06,31,7.10
2013,10,18,06,32,7.10
2013,10,18,06,33,7.10
2013,10,18,06,34,7.10
2013,10,18,06,35,7.10
2013,10,18,06,36,7.10
2013,10,18,06,37,7.10
2013,10,18,06,38,7.10
2013,10,18,06,39,7.10
2013,10,18,06,40,7.10
2013,10,18,06,41,7.10
2013,10,18,06,42,7.10
2013,10,18,06,43,7.10
2013,10,18,06,44,7.10
2013,10,18,06,45,7.10
2013,10,18,06,46,7.10
2013,10,18,06,47,7.10
2013,10,18,06,48,7.10
2013,10,18,06,49,7.10
2013,10,18,06,50,7.10
2013,10,18,06,51,7.10
2013,10,18,06,52,7.10
2013,10,18,06,53,7.10
2013,10,18,06,54,7.10
2013,10,18,06,55,7.10
2013,10,18,06,56,7.10
2013,10,18,06,57,7.10
2013,10,18,06,58,7.10
2013,10,18,06,59,7.10
2013,10,18,07,00,7.10
2013,10,18,07,01,7.10
2013,10,18,07,02,7.10
2013,10,18,07,03,7.10
2013,10,18,07,04,7.10
2013,10,18,07,05,7.20
2013,10,18,07,06,7.20
2013,10,18,07,07,7.20
2013,10,18,07,08,7.20
2013,10,18,07,09,7.20
2013,10,18,07,10,7.20
2013,10,18,07,11,7.20
2013,10,18,07,12,7.20
2013,10,18,07,13,7.20
2013,10,18,07,14,7.20
2013,10,18,07,15,7.20
2013,10,18,07,16,7.20
2013,10,18,07,17,7.20
2013,10,18,07,18,7.20
2013,10,18,07,19,7.20
2013,10,18,07,20,7.20
2013,10,18,07,21,7.20
2013,10,18,07,22,7.20
2013,10,18,07,23,7.20
2013,10,18,07,24,7.20
2013,10,18,07,25,7.20
2013,10,18,07,26,7.20
2013,10,18,07,27,7.20
2013,10,18,07,28,7.20
2013,10,18,07,29,7.20
2013,10,18,07,30,7.30
2013,10,18,07,31,7.30
2013,10,18,07,32,7.30
2013,10,18,07,33,7.30
2013,10,18,07,34,7.30
2013,10,18,07,35,7.30
2013,10,18,07,36,7.30
2013,10,18,07,37,7.30
2013,10,18,07,38,7.30
2013,10,18,07,39,7.30
2013,10,18,07,40,7.30
2013,10,18,07,41,7.30
2013,10,18,07,42,7.30
2013,10,18,07,43,7.30
2013,10,18,07,44,7.30
2013,10,18,07,45,7.30
2013,10,18,07,46,7.30
2013,10,18,07,47,7.30
2013,10,18,07,48,7.30
2013,10,18,07,49,7.30
2013,10,18,07,50,7.40
2013,10,18,07,51,7.40
2013,10,18,07,52,7.40
2013,10,18,07,53,7.40
2013,10,18,07,54,7.40
2013,10,18,07,55,7.40
2013,10,18,07,56,7.40
2013,10,18,07,57,7.40
2013,10,18,07,58,7.40
2013,10,18,07,59,7.40
2013,10,18,08,00,7.40
2013,10,18,08,01,7.40
2013,10,18,08,02,7.40
2013,10,18,08,03,7.40
2013,10,18,08,04,7.40
2013,10,18,08,05,7.40
2013,10,18,08,06,7.50
2013,10,18,08,07,7.50
2013,10,18,08,08,7.50
2013,10,18,08,09,7.50
2013,10,18,08,10,7.50
2013,10,18,08,11,7.50
2013,10,18,08,12,7.50
2013,10,18,08,13,7.50
2013,10,18,08,14,7.50
2013,10,18,08,15,7.50
2013,10,18,08,16,7.50
2013,10,18,08,17,7.50
2013,10,18,08,18,7.50
2013,10,18,08,19,7.50
2013,10,18,08,20,7.50
2013,10,18,08,21,7.60
2013,10,18,08,22,7.60
2013,10,18,08,23,7.60
2013,10,18,08,24,7.60
2013,10,18,08,25,7.60
2013,10,18,08,26,7.60
2013,10,18,08,27,7.60
2013,10,18,08,28,7.60
2013,10,18,08,29,7.60
2013,10,18,08,30,7.60
2013,10,18,08,31,7.60
2013,10,18,08,32,7.60
2013,10,18,08,33,7.60
2013,10,18,08,34,7.70
2013,10,18,08,35,7.70
2013,10,18,08,36,7.70
2013,10,18,08,37,7.70
2013,10,18,08,38,7.70
2013,10,18,08,39,7.70
2013,10,18,08,40,7.70
2013,10,18,08,41,7.70
2013,10,18,08,42,7.70
2013,10,18,08,43,7.70
2013,10,18,08,44,7.70
2013,10,18,08,45,7.80
2013,10,18,08,46,7.80
2013,10,18,08,47,7.80
2013,10,18,08,48,7.80
2013,10,18,08,49,7.80
2013,10,18,08,50,7.80
2013,10,18,08,51,7.80
2013,10,18,08,52,7.80
2013,10,18,08,53,7.80
2013,10,18,08,54,7.80
2013,10,18,08,55,7.80
2013,10,18,08,56,7.80
2013,10,18,08,57,7.90
2013,10,18,08,58,7.90
2013,10,18,08,59,7.90
2013,10,18,09,00,7.90
2013,10,18,09,01,7.90
2013,10,18,09,02,7.90
2013,10,18,09,03,7.90
2013,10,18,09,04,7.90
2013,10,18,09,05,8.00
2013,10,18,09,06,8.00
2013,10,18,09,07,8.00
2013,10,18,09,08,8.00
2013,10,18,09,09,8.00
2013,10,18,09,10,8.00
2013,10,18,09,11,8.00
2013,10,18,09,12,8.00
2013,10,18,09,13,8.10
2013,10,18,09,14,8.10
2013,10,18,09,15,8.10
2013,10,18,09,16,8.10
2013,10,18,09,17,8.10
2013,10,18,09,18,8.10
2013,10,18,09,19,8.10
2013,10,18,09,20,8.10
2013,10,18,09,21,8.20
2013,10,18,09,22,8.20
2013,10,18,09,23,8.20
2013,10,18,09,24,8.20
2013,10,18,09,25,8.20
2013,10,18,09,26,8.20
2013,10,18,09,27,8.20
2013,10,18,09,28,8.20
2013,10,18,09,29,8.20
2013,10,18,09,30,8.30
2013,10,18,09,31,8.30
2013,10,18,09,32,8.30
2013,10,18,09,33,8.30
2013,10,18,09,34,8.30
2013,10,18,09,35,8.30
2013,10,18,09,36,8.40
2013,10,18,09,37,8.40
2013,10,18,09,38,8.40
2013,10,18,09,39,8.40
2013,10,18,09,40,8.40
2013,10,18,09,41,8.40
2013,10,18,09,42,8.40
2013,10,18,09,43,8.40
2013,10,18,09,44,8.50
2013,10,18,09,45,8.50
2013,10,18,09,46,8.50
2013,10,18,09,47,8.50
2013,10,18,09,48,8.50
2013,10,18,09,49,8.60
2013,10,18,09,50,8.60
2013,10,18,09,51,8.60
2013,10,18,09,52,8.60
2013,10,18,09,53,8.60
2013,10,18,09,54,8.60
2013,10,18,09,55,8.70
2013,10,18,09,56,8.70
2013,10,18,09,57,8.70
2013,10,18,09,58,8.70
2013,10,18,09,59,8.70
2013,10,18,10,00,8.80
2013,10,18,10,01,8.80
2013,10,18,10,02,8.80
2013,10,18,10,03,8.80
2013,10,18,10,04,8.80
2013,10,18,10,05,8.80
2013,10,18,10,06,8.90
2013,10,18,10,07,8.90
2013,10,18,10,08,8.90
2013,10,18,10,09,8.90
2013,10,18,10,10,8.90
2013,10,18,10,11,8.90
2013,10,18,10,12,8.90
2013,10,18,10,13,8.90
2013,10,18,10,14,8.90
2013,10,18,10,15,9.00
2013,10,18,10,16,9.00
2013,10,18,10,17,9.00
2013,10,18,10,18,9.00
2013,10,18,10,19,9.00
2013,10,18,10,20,9.00
2013,10,18,10,21,9.00
2013,10,18,10,22,9.00
2013,10,18,10,23,9.00
2013,10,18,10,24,9.00
2013,10,18,10,25,9.00
2013,10,18,10,26,9.00
2013,10,18,10,27,9.10
2013,10,18,10,28,9.10
2013,10,18,10,29,9.10
2013,10,18,10,30,9.10
2013,10,18,10,31,9.10
2013,10,18,10,32,9.10
2013,10,18,10,33,9.10
2013,10,18,10,34,9.10
2013,10,18,10,35,9.10
2013,10,18,10,36,9.10
2013,10,18,10,37,9.10
2013,10,18,10,38,9.10
2013,10,18,10,39,9.10
2013,10,18,10,40,9.10
2013,10,18,10,41,9.20
2013,10,18,10,42,9.20
2013,10,18,10,43,9.20
2013,10,18,10,44,9.10
2013,10,18,10,45,9.10
2013,10,18,10,46,9.10
2013,10,18,10,47,9.10
2013,10,18,10,48,9.10
2013,10,18,10,49,9.20
2013,10,18,10,50,9.20
2013,10,18,10,51,9.20
2013,10,18,10,52,9.20
2013,10,18,10,53,9.20
2013,10,18,10,54,9.20
2013,10,18,10,55,9.30
2013,10,18,10,56,9.30
2013,10,18,10,57,9.30
2013,10,18,10,58,9.30
2013,10,18,10,59,9.30
2013,10,18,11,00,9.30
2013,10,18,11,01,9.30
2013,10,18,11,02,9.20
2013,10,18,11,03,9.20
2013,10,18,11,04,9.20
2013,10,18,11,05,9.20
2013,10,18,11,06,9.20
2013,10,18,11,07,9.20
2013,10,18,11,08,9.30
2013,10,18,11,09,9.30
2013,10,18,11,10,9.30
2013,10,18,11,11,9.30
2013,10,18,11,12,9.30
2013,10,18,11,13,9.30
2013,10,18,11,14,9.30
2013,10,18,11,15,9.30
2013,10,18,11,16,9.30
2013,10,18,11,17,9.30
2013,10,18,11,18,9.30
2013,10,18,11,19,9.40
2013,10,18,11,20,9.40
2013,10,18,11,21,9.40
2013,10,18,11,22,9.40
2013,10,18,11,23,9.40
2013,10,18,11,24,9.50
2013,10,18,11,25,9.50
2013,10,18,11,26,9.60
2013,10,18,11,27,9.60
2013,10,18,11,28,9.60
2013,10,18,11,29,9.70
2013,10,18,11,30,9.70
2013,10,18,11,31,9.70
2013,10,18,11,32,9.70
2013,10,18,11,33,9.80
2013,10,18,11,34,9.80
2013,10,18,11,35,9.80
2013,10,18,11,36,9.80
2013,10,18,11,37,9.80
2013,10,18,11,38,9.90
2013,10,18,11,39,9.90
2013,10,18,11,40,10.00
2013,10,18,11,41,10.10
2013,10,18,11,42,10.20
2013,10,18,11,43,10.20
2013,10,18,11,44,10.30
2013,10,18,11,45,10.40
2013,10,18,11,46,10.50
2013,10,18,11,47,10.50
2013,10,18,11,48,10.60
2013,10,18,11,49,10.70
2013,10,18,11,50,10.80
2013,10,18,11,51,10.80
2013,10,18,11,52,10.90
2013,10,18,11,53,11.00
2013,10,18,11,54,11.10
2013,10,18,11,55,11.10
2013,10,18,11,56,11.20
2013,10,18,11,57,11.30
2013,10,18,11,58,11.30
2013,10,18,11,59,11.40
2013,10,18,12,00,11.50
2013,10,18,12,01,11.60
2013,10,18,12,02,11.60
2013,10,18,12,03,11.70
2013,10,18,12,04,11.80
2013,10,18,12,05,11.80
2013,10,18,12,06,11.90
2013,10,18,12,07,11.90
2013,10,18,12,08,12.00
2013,10,18,12,09,12.10
2013,10,18,12,10,12.10
2013,10,18,12,11,12.20
2013,10,18,12,12,12.20
2013,10,18,12,13,12.20
2013,10,18,12,14,12.30
2013,10,18,12,15,12.30
2013,10,18,12,16,12.40
2013,10,18,12,17,12.40
2013,10,18,12,18,12.40
2013,10,18,12,19,12.40
2013,10,18,12,20,12.40
2013,10,18,12,21,12.40
2013,10,18,12,22,12.40
2013,10,18,12,23,12.40
2013,10,18,12,24,12.40
2013,10,18,12,25,12.40
2013,10,18,12,26,12.50
2013,10,18,12,27,12.50
2013,10,18,12,28,12.50
2013,10,18,12,29,12.50
2013,10,18,12,30,12.50
2013,10,18,12,31,12.50
2013,10,18,12,32,12.50
2013,10,18,12,33,12.50
2013,10,18,12,34,12.60
2013,10,18,12,35,12.60
2013,10,18,12,36,12.60
2013,10,18,12,37,12.60
2013,10,18,12,38,12.60
2013,10,18,12,39,12.60
2013,10,18,12,40,12.60
2013,10,18,12,41,12.60
2013,10,18,12,42,12.60
2013,10,18,12,43,12.60
2013,10,18,12,44,12.60
2013,10,18,12,45,12.60
2013,10,18,12,46,12.60
2013,10,18,12,47,12.70
2013,10,18,12,48,12.70
2013,10,18,12,49,12.70
2013,10,18,12,50,12.70
2013,10,18,12,51,12.70
2013,10,18,12,52,12.80
2013,10,18,12,53,12.80
2013,10,18,12,54,12.80
2013,10,18,12,55,12.90
2013,10,18,12,56,12.90
2013,10,18,12,57,12.90
2013,10,18,12,58,12.90
2013,10,18,12,59,13.00
2013,10,18,13,00,13.00
2013,10,18,13,01,13.10
2013,10,18,13,02,13.10
2013,10,18,13,03,13.20
2013,10,18,13,04,13.20
2013,10,18,13,05,13.30
2013,10,18,13,06,13.40
2013,10,18,13,07,13.40
2013,10,18,13,08,13.50
2013,10,18,13,09,13.50
2013,10,18,13,10,13.60
2013,10,18,13,11,13.60
2013,10,18,13,12,13.70
2013,10,18,13,13,13.70
2013,10,18,13,14,13.80
2013,10,18,13,15,13.80
2013,10,18,13,16,13.90
2013,10,18,13,17,13.90
2013,10,18,13,18,14.00
2013,10,18,13,19,14.00
2013,10,18,13,20,14.10
2013,10,18,13,21,14.10
2013,10,18,13,22,14.20
2013,10,18,13,23,14.20
2013,10,18,13,24,14.30
2013,10,18,13,25,14.30
2013,10,18,13,26,14.30
2013,10,18,13,27,14.40
2013,10,18,13,28,14.40
2013,10,18,13,29,14.50
2013,10,18,13,30,14.50
2013,10,18,13,31,14.50
2013,10,18,13,32,14.50
2013,10,18,13,33,14.60
2013,10,18,13,34,14.60
2013,10,18,13,35,14.60
2013,10,18,13,36,14.70
2013,10,18,13,37,14.70
2013,10,18,13,38,14.70
2013,10,18,13,39,14.70
2013,10,18,13,40,14.70
2013,10,18,13,41,14.70
2013,10,18,13,42,14.70
2013,10,18,13,43,14.70
2013,10,18,13,44,14.70
2013,10,18,13,45,14.70
2013,10,18,13,46,14.70
2013,10,18,13,47,14.70
2013,10,18,13,48,14.70
2013,10,18,13,49,14.70
2013,10,18,13,50,14.70
2013,10,18,13,51,14.70
2013,10,18,13,52,14.70
2013,10,18,13,53,14.70
2013,10,18,13,54,14.70
2013,10,18,13,55,14.80
2013,10,18,13,56,14.80
2013,10,18,13,57,14.80
2013,10,18,13,58,14.80
2013,10,18,13,59,14.80
2013,10,18,14,00,14.80
2013,10,18,14,01,14.90
2013,10,18,14,02,14.90
2013,10,18,14,03,14.90
2013,10,18,14,04,14.90
2013,10,18,14,05,14.90
2013,10,18,14,06,14.90
2013,10,18,14,07,14.90
2013,10,18,14,08,14.90
2013,10,18,14,09,14.90
2013,10,18,14,10,14.90
2013,10,18,14,11,14.90
2013,10,18,14,12,14.80
2013,10,18,14,13,14.80
2013,10,18,14,14,14.80
2013,10,18,14,15,14.70
2013,10,18,14,16,14.60
2013,10,18,14,17,14.60
2013,10,18,14,18,14.50
2013,10,18,14,19,14.50
2013,10,18,14,20,14.40
2013,10,18,14,21,14.40
2013,10,18,14,22,14.30
2013,10,18,14,23,14.30
2013,10,18,14,24,14.30
2013,10,18,14,25,14.30
2013,10,18,14,26,14.30
2013,10,18,14,27,14.30
2013,10,18,14,28,14.20
2013,10,18,14,29,14.20
2013,10,18,14,30,14.20
2013,10,18,14,31,14.20
2013,10,18,14,32,14.20
2013,10,18,14,33,14.20
2013,10,18,14,34,14.20
2013,10,18,14,35,14.20
2013,10,18,14,36,14.20
2013,10,18,14,37,14.20
2013,10,18,14,38,14.20
2013,10,18,14,39,14.20
2013,10,18,14,40,14.20
2013,10,18,14,41,14.20
2013,10,18,14,42,14.20
2013,10,18,14,43,14.20
2013,10,18,14,44,14.20
2013,10,18,14,45,14.20
2013,10,18,14,46,14.20
2013,10,18,14,47,14.20
2013,10,18,14,48,14.10
2013,10,18,14,49,14.10
2013,10,18,14,50,14.10
2013,10,18,14,51,14.10
2013,10,18,14,52,14.10
2013,10,18,14,53,14.10
2013,10,18,14,54,14.10
2013,10,18,14,55,14.10
2013,10,18,14,56,14.10
2013,10,18,14,57,14.10
2013,10,18,14,58,14.00
2013,10,18,14,59,14.10
2013,10,18,15,00,14.00
2013,10,18,15,01,14.10
2013,10,18,15,02,14.10
2013,10,18,15,03,14.10
2013,10,18,15,04,14.10
2013,10,18,15,05,14.10
2013,10,18,15,06,14.00
2013,10,18,15,07,14.00
2013,10,18,15,08,14.00
2013,10,18,15,09,14.00
2013,10,18,15,10,14.00
2013,10,18,15,11,13.90
2013,10,18,15,12,13.90
2013,10,18,15,13,13.90
2013,10,18,15,14,13.90
2013,10,18,15,15,13.90
2013,10,18,15,16,13.90
2013,10,18,15,17,13.90
2013,10,18,15,18,13.90
2013,10,18,15,19,13.80
2013,10,18,15,20,13.80
2013,10,18,15,21,13.80
2013,10,18,15,22,13.80
2013,10,18,15,23,13.80
2013,10,18,15,24,13.80
2013,10,18,15,25,13.80
2013,10,18,15,26,13.80
2013,10,18,15,27,13.80
2013,10,18,15,28,13.80
2013,10,18,15,29,13.80
2013,10,18,15,30,13.80
2013,10,18,15,31,13.80
2013,10,18,15,32,13.80
2013,10,18,15,33,13.80
2013,10,18,15,34,13.90
2013,10,18,15,35,14.00
2013,10,18,15,36,14.00
2013,10,18,15,37,14.10
2013,10,18,15,38,14.10
2013,10,18,15,39,14.20
2013,10,18,15,40,14.20
2013,10,18,15,41,14.20
2013,10,18,15,42,14.20
2013,10,18,15,43,14.20
2013,10,18,15,44,14.30
2013,10,18,15,45,14.30
2013,10,18,15,46,14.30
2013,10,18,15,47,14.20
2013,10,18,15,48,14.20
2013,10,18,15,49,14.10
2013,10,18,15,50,14.00
2013,10,18,15,51,14.00
2013,10,18,15,52,13.90
2013,10,18,15,53,13.80
2013,10,18,15,54,13.80
2013,10,18,15,55,13.70
2013,10,18,15,56,13.60
2013,10,18,15,57,13.60
2013,10,18,15,58,13.60
2013,10,18,15,59,13.50
2013,10,18,16,00,13.50
2013,10,18,16,01,13.40
2013,10,18,16,02,13.40
2013,10,18,16,03,13.40
2013,10,18,16,04,13.40
2013,10,18,16,05,13.40
2013,10,18,16,06,13.40
2013,10,18,16,07,13.40
2013,10,18,16,08,13.30
2013,10,18,16,09,13.30
2013,10,18,16,10,13.30
2013,10,18,16,11,13.30
2013,10,18,16,12,13.30
2013,10,18,16,13,13.30
2013,10,18,16,14,13.20
2013,10,18,16,15,13.10
2013,10,18,16,16,13.10
2013,10,18,16,17,13.00
2013,10,18,16,18,12.90
2013,10,18,16,19,12.90
2013,10,18,16,20,12.80
2013,10,18,16,21,12.80
2013,10,18,16,22,12.70
2013,10,18,16,23,12.70
2013,10,18,16,24,12.70
2013,10,18,16,25,12.70
2013,10,18,16,26,12.60
2013,10,18,16,27,12.50
2013,10,18,16,28,12.50
2013,10,18,16,29,12.40
2013,10,18,16,30,12.30
2013,10,18,16,31,12.30
2013,10,18,16,32,12.20
2013,10,18,16,33,12.20
2013,10,18,16,34,12.10
2013,10,18,16,35,12.00
2013,10,18,16,36,12.00
2013,10,18,16,37,11.90
2013,10,18,16,38,11.90
2013,10,18,16,39,11.80
2013,10,18,16,40,11.80
2013,10,18,16,41,11.80
2013,10,18,16,42,11.70
2013,10,18,16,43,11.70
2013,10,18,16,44,11.70
2013,10,18,16,45,11.60
2013,10,18,16,46,11.60
2013,10,18,16,47,11.60
2013,10,18,16,48,11.50
2013,10,18,16,49,11.40
2013,10,18,16,50,11.30
2013,10,18,16,51,11.30
2013,10,18,16,52,11.20
2013,10,18,16,53,11.20
2013,10,18,16,54,11.20
2013,10,18,16,55,11.10
2013,10,18,16,56,11.10
2013,10,18,16,57,11.10
2013,10,18,16,58,11.10
2013,10,18,16,59,11.00
2013,10,18,17,00,11.00
2013,10,18,17,01,11.00
2013,10,18,17,02,10.90
2013,10,18,17,03,10.90
2013,10,18,17,04,10.90
2013,10,18,17,05,10.90
2013,10,18,17,06,10.80
2013,10,18,17,07,10.80
2013,10,18,17,08,10.80
2013,10,18,17,09,10.80
2013,10,18,17,10,10.70
2013,10,18,17,11,10.70
2013,10,18,17,12,10.70
2013,10,18,17,13,10.60
2013,10,18,17,14,10.60
2013,10,18,17,15,10.60
2013,10,18,17,16,10.60
2013,10,18,17,17,10.50
2013,10,18,17,18,10.50
2013,10,18,17,19,10.40
2013,10,18,17,20,10.40
2013,10,18,17,21,10.40
2013,10,18,17,22,10.40
2013,10,18,17,23,10.30
2013,10,18,17,24,10.30
2013,10,18,17,25,10.30
2013,10,18,17,26,10.30
2013,10,18,17,27,10.20
2013,10,18,17,28,10.20
2013,10,18,17,29,10.20
2013,10,18,17,30,10.20
2013,10,18,17,31,10.10
2013,10,18,17,32,10.10
2013,10,18,17,33,10.10
2013,10,18,17,34,10.10
2013,10,18,17,35,10.10
2013,10,18,17,36,10.10
2013,10,18,17,37,10.10
2013,10,18,17,38,10.00
2013,10,18,17,39,10.00
2013,10,18,17,40,10.00
2013,10,18,17,41,9.90
2013,10,18,17,42,9.90
2013,10,18,17,43,9.90
2013,10,18,17,44,9.80
2013,10,18,17,45,9.80
2013,10,18,17,46,9.80
2013,10,18,17,47,9.80
2013,10,18,17,48,9.80
2013,10,18,17,49,9.80
2013,10,18,17,50,9.80